Location: Niverville
(49.6028°N, 97.0419°W)
Time: 08:45:45
(UTC-05:00)

ISS - All Passes

Search period start: 22 October 2014 00:00
Search period end: 01 November 2014 00:00
Orbit: 413 x 416 km, 51.6° (Epoch: 22 October)

Date Brightness Start Highest point End Pass type
(mag) Time Alt. Az. Time Alt. Az. Time Alt. Az.
22 Oct - 15:23:39 10° SW 15:26:52 46° SSE 15:30:06 10° ENE daylight
22 Oct - 17:00:12 10° W 17:03:32 65° N 17:06:53 10° ENE daylight
22 Oct - 18:37:06 10° WNW 18:40:27 68° N 18:43:47 10° E daylight
22 Oct - 20:13:54 10° WNW 20:17:04 41° SSW 20:20:14 10° SE visible
23 Oct - 14:34:53 10° SSW 14:37:52 31° SSE 14:40:53 10° E daylight
23 Oct - 16:11:03 10° WSW 16:14:24 77° NNW 16:17:45 10° ENE daylight
23 Oct - 17:47:58 10° WNW 17:51:17 60° N 17:54:37 10° E daylight
23 Oct - 19:24:44 10° WNW 19:28:02 60° SSW 19:31:20 10° SE visible
23 Oct - 21:02:28 10° WSW 21:04:12 14° SW 21:05:56 10° SSW visible
24 Oct - 13:46:18 10° SSW 13:48:53 21° SE 13:51:29 10° E daylight
24 Oct - 15:21:54 10° WSW 15:25:15 83° SSE 15:28:36 10° ENE daylight
24 Oct - 16:58:46 10° W 17:02:05 58° N 17:05:24 10° E daylight
24 Oct - 18:35:34 10° WNW 18:38:55 82° SSW 18:42:16 10° ESE daylight
24 Oct - 20:12:42 10° W 20:15:16 21° SW 20:17:49 10° SSE visible
25 Oct - 12:58:08 10° S 12:59:55 14° SE 13:01:43 10° ESE daylight
25 Oct - 14:32:48 10° SW 14:36:05 61° SSE 14:39:24 10° ENE daylight
25 Oct - 16:09:31 10° W 16:12:50 60° N 16:16:09 10° ENE daylight
25 Oct - 17:46:22 10° WNW 17:49:43 78° NNE 17:53:04 10° ESE daylight
25 Oct - 19:23:14 10° W 19:26:14 30° SW 19:29:12 10° SSE visible
26 Oct - 13:43:47 10° SW 13:46:56 42° SSE 13:50:07 10° ENE daylight
26 Oct - 15:20:14 10° W 15:23:34 68° N 15:26:54 10° ENE daylight
26 Oct - 16:57:08 10° WNW 17:00:28 66° N 17:03:47 10° E daylight
26 Oct - 18:33:54 10° WNW 18:37:07 45° SSW 18:40:19 10° SE daylight
27 Oct - 12:54:54 10° SSW 12:57:48 28° SE 13:00:43 10° E daylight
27 Oct - 14:30:56 10° WSW 14:34:16 82° NNW 14:37:37 10° ENE daylight
27 Oct - 16:07:50 10° WNW 16:11:09 59° N 16:14:27 10° E daylight
27 Oct - 17:44:35 10° WNW 17:47:54 65° SSW 17:51:13 10° ESE daylight
27 Oct - 19:22:06 10° W 19:24:06 15° SW 19:26:06 10° S visible
28 Oct - 12:06:15 10° S 12:08:40 19° SE 12:11:06 10° E daylight
28 Oct - 13:41:39 10° WSW 13:44:58 78° SSE 13:48:19 10° ENE daylight
28 Oct - 15:18:28 10° W 15:21:47 58° N 15:25:05 10° E daylight
28 Oct - 16:55:16 10° WNW 16:58:37 88° SSW 17:01:58 10° ESE daylight
28 Oct - 18:32:18 10° W 18:35:00 23° SW 18:37:41 10° SSE daylight
29 Oct - 11:18:09 10° SSE 11:19:34 12° SE 11:21:00 10° ESE daylight
29 Oct - 12:52:24 10° SW 12:55:40 55° SSE 12:58:57 10° ENE daylight
29 Oct - 14:29:04 10° W 14:32:23 61° N 14:35:42 10° ENE daylight
29 Oct - 16:05:55 10° WNW 16:09:15 74° NNE 16:12:36 10° E daylight
29 Oct - 17:42:44 10° W 17:45:48 34° SSW 17:48:50 10° SSE daylight
30 Oct - 12:03:16 10° SW 12:06:23 37° SSE 12:09:30 10° E daylight
30 Oct - 13:39:37 10° W 13:42:57 71° NNW 13:46:17 10° ENE daylight
30 Oct - 15:16:31 10° WNW 15:19:50 63° N 15:23:09 10° E daylight
30 Oct - 16:53:16 10° WNW 16:56:30 50° SSW 16:59:44 10° SE daylight
30 Oct - 18:31:42 10° WSW 18:32:33 11° SW 18:33:25 10° SSW daylight
31 Oct - 11:14:18 10° SSW 11:17:06 25° SE 11:19:54 10° E daylight
31 Oct - 12:50:10 10° WSW 12:53:31 87° NNW 12:56:52 10° ENE daylight
31 Oct - 14:27:03 10° WNW 14:30:21 58° N 14:33:40 10° E daylight
31 Oct - 16:03:48 10° WNW 16:07:08 71° SSW 16:10:27 10° ESE daylight
31 Oct - 17:41:08 10° W 17:43:22 17° SW 17:45:36 10° S daylight
